Powrót do katalogu

OPS 4682 DEB

AktywnyPO
NORAD 51505·DEBRIS·🇺🇸 United States

Wystrzelony Apr 3, 1965 z Vandenberg Space Force Base

Loading…

Następne Przeloty (najbliższe 24 godziny)

TLE

ŚwieżeSource: Space-Track

Epoka: Sep 13, 2026, 06:43 UTC

1 51505U 65027GR  26256.28017793 -.00000443  00000-0 -15160-2 0  9992
2 51505  90.2514  14.0277 0031870  94.7599 265.7163 12.98962515357487

Śledź OPS 4682 DEB w czasie rzeczywistym z AllMySat

Download on the App Store